owner,sensor,date,latitude,longitude,vertical_datum,sea_water_practical_salinity,qcFlag 
LUMCON,ioos:station:LUMCON:101:1,2015-08-01T05:00:00Z,29.2533,-90.6633,0.69,3.55,1111122 
LUMCON,ioos:station:LUMCON:101:1,2015-08-01T05:15:00Z,29.2533,-90.6633,0.71,3.54,1111122 
LUMCON,ioos:station:LUMCON:101:1,2015-08-01T05:30:00Z,29.2533,-90.6633,0.72,3.52,1111122 
LUMCON,ioos:station:LUMCON:101:1,2015-08-01T05:45:00Z,29.2533,-90.6633,0.72,3.51,1111122 
LUMCON,ioos:station:LUMCON:101:1,2015-08-01T06:00:00Z,29.2533,-90.6633,0.72,3.52,1111122 
LUMCON,ioos:station:LUMCON:101:1,2015-08-01T06:15:00Z,29.2533,-90.6633,0.74,3.5,1111122 
LUMCON,ioos:station:LUMCON:101:1,2015-08-01T06:30:00Z,29.2533,-90.6633,0.73,3.5,1111122 
LUMCON,ioos:station:LUMCON:101:1,2015-08-01T06:45:00Z,29.2533,-90.6633,0.73,3.47,1111122 
LUMCON,ioos:station:LUMCON:101:1,2015-08-01T07:00:00Z,29.2533,-90.6633,0.74,3.51,1111122 
LUMCON,ioos:station:LUMCON:101:1,2015-08-01T07:15:00Z,29.2533,-90.6633,0.76,3.5,1111122 
LUMCON,ioos:station:LUMCON:101:1,2015-08-01T07:30:00Z,29.2533,-90.6633,0.79,3.52,1111122 
LUMCON,ioos:station:LUMCON:101:1,2015-08-01T07:45:00Z,29.2533,-90.6633,0.82,3.67,1111122 
LUMCON,ioos:station:LUMCON:101:1,2015-08-01T08:00:00Z,29.2533,-90.6633,0.84,3.74,1111122 
LUMCON,ioos:station:LUMCON:101:1,2015-08-01T08:15:00Z,29.2533,-90.6633,0.83,3.96,1111122 
LUMCON,ioos:station:LUMCON:101:1,2015-08-01T08:30:00Z,29.2533,-90.6633,0.83,4.11,1111122 
LUMCON,ioos:station:LUMCON:101:1,2015-08-01T08:45:00Z,29.2533,-90.6633,0.84,4.23,1111122 
LUMCON,ioos:station:LUMCON:101:1,2015-08-01T09:00:00Z,29.2533,-90.6633,0.86,4.29,1111122 
LUMCON,ioos:station:LUMCON:101:1,2015-08-01T09:15:00Z,29.2533,-90.6633,0.87,4.51,1111122 
LUMCON,ioos:station:LUMCON:101:1,2015-08-01T09:30:00Z,29.2533,-90.6633,0.88,4.58,1111122 
LUMCON,ioos:station:LUMCON:101:1,2015-08-01T09:45:00Z,29.2533,-90.6633,0.89,4.62,1111122 
LUMCON,ioos:station:LUMCON:101:1,2015-08-01T10:00:00Z,29.2533,-90.6633,0.91,4.61,1111122 
LUMCON,ioos:station:LUMCON:101:1,2015-08-01T10:15:00Z,29.2533,-90.6633,0.92,4.65,1111122 
LUMCON,ioos:station:LUMCON:101:1,2015-08-01T10:30:00Z,29.2533,-90.6633,0.93,4.65,1111122 
LUMCON,ioos:station:LUMCON:101:1,2015-08-01T10:45:00Z,29.2533,-90.6633,0.93,4.7,1111122 
LUMCON,ioos:station:LUMCON:101:1,2015-08-01T11:00:00Z,29.2533,-90.6633,0.93,4.73,1111122 
LUMCON,ioos:station:LUMCON:101:1,2015-08-01T11:15:00Z,29.2533,-90.6633,0.94,4.77,1111122 
LUMCON,ioos:station:LUMCON:101:1,2015-08-01T11:30:00Z,29.2533,-90.6633,0.96,4.8,1111122 
LUMCON,ioos:station:LUMCON:101:1,2015-08-01T11:45:00Z,29.2533,-90.6633,0.97,4.81,1111122 
LUMCON,ioos:station:LUMCON:101:1,2015-08-01T12:00:00Z,29.2533,-90.6633,0.98,4.8,1111122 
LUMCON,ioos:station:LUMCON:101:1,2015-08-01T12:15:00Z,29.2533,-90.6633,0.99,4.8,1111122 
LUMCON,ioos:station:LUMCON:101:1,2015-08-01T12:30:00Z,29.2533,-90.6633,1.0,4.75,1111122 
LUMCON,ioos:station:LUMCON:101:1,2015-08-01T12:45:00Z,29.2533,-90.6633,1.0,4.73,1111122 
LUMCON,ioos:station:LUMCON:101:1,2015-08-01T13:00:00Z,29.2533,-90.6633,1.02,4.74,1111122 
LUMCON,ioos:station:LUMCON:101:1,2015-08-01T13:15:00Z,29.2533,-90.6633,1.03,4.8,1111122 
LUMCON,ioos:station:LUMCON:101:1,2015-08-01T13:30:00Z,29.2533,-90.6633,1.04,4.9,1111122 
LUMCON,ioos:station:LUMCON:101:1,2015-08-01T13:45:00Z,29.2533,-90.6633,1.04,4.97,1111122 
LUMCON,ioos:station:LUMCON:101:1,2015-08-01T14:00:00Z,29.2533,-90.6633,1.04,5.06,1111122 
LUMCON,ioos:station:LUMCON:101:1,2015-08-01T14:15:00Z,29.2533,-90.6633,1.05,5.17,1111122 
LUMCON,ioos:station:LUMCON:101:1,2015-08-01T14:30:00Z,29.2533,-90.6633,1.05,5.19,1111122 
LUMCON,ioos:station:LUMCON:101:1,2015-08-01T14:45:00Z,29.2533,-90.6633,1.06,5.25,1111122 
LUMCON,ioos:station:LUMCON:101:1,2015-08-01T15:00:00Z,29.2533,-90.6633,1.06,5.29,1111122 
LUMCON,ioos:station:LUMCON:101:1,2015-08-01T15:15:00Z,29.2533,-90.6633,1.07,5.36,1111122 
LUMCON,ioos:station:LUMCON:101:1,2015-08-01T15:30:00Z,29.2533,-90.6633,1.08,5.41,1111122 
LUMCON,ioos:station:LUMCON:101:1,2015-08-01T15:45:00Z,29.2533,-90.6633,1.09,5.52,1111122 
LUMCON,ioos:station:LUMCON:101:1,2015-08-01T16:00:00Z,29.2533,-90.6633,1.09,5.61,1111122 
LUMCON,ioos:station:LUMCON:101:1,2015-08-01T16:15:00Z,29.2533,-90.6633,1.09,5.61,1111122 
LUMCON,ioos:station:LUMCON:101:1,2015-08-01T16:30:00Z,29.2533,-90.6633,1.1,5.72,1111122 
LUMCON,ioos:station:LUMCON:101:1,2015-08-01T16:45:00Z,29.2533,-90.6633,1.1,5.93,1111122 
LUMCON,ioos:station:LUMCON:101:1,2015-08-01T17:00:00Z,29.2533,-90.6633,1.11,6.07,1111122 
LUMCON,ioos:station:LUMCON:101:1,2015-08-01T17:15:00Z,29.2533,-90.6633,1.11,6.02,1111122 
LUMCON,ioos:station:LUMCON:101:1,2015-08-01T17:30:00Z,29.2533,-90.6633,1.12,6.02,1111122 
LUMCON,ioos:station:LUMCON:101:1,2015-08-01T17:45:00Z,29.2533,-90.6633,1.12,6.11,1111122 
LUMCON,ioos:station:LUMCON:101:1,2015-08-01T18:00:00Z,29.2533,-90.6633,1.11,6.29,1111122 
LUMCON,ioos:station:LUMCON:101:1,2015-08-01T18:15:00Z,29.2533,-90.6633,1.12,6.56,1111122 
LUMCON,ioos:station:LUMCON:101:1,2015-08-01T18:30:00Z,29.2533,-90.6633,1.11,6.76,1111122 
LUMCON,ioos:station:LUMCON:101:1,2015-08-01T18:45:00Z,29.2533,-90.6633,1.1,6.74,1111122 
LUMCON,ioos:station:LUMCON:101:1,2015-08-01T19:00:00Z,29.2533,-90.6633,1.1,6.72,1111122 
LUMCON,ioos:station:LUMCON:101:1,2015-08-01T19:15:00Z,29.2533,-90.6633,1.1,6.69,1111122 
LUMCON,ioos:station:LUMCON:101:1,2015-08-01T19:30:00Z,29.2533,-90.6633,1.1,6.41,1111122 
LUMCON,ioos:station:LUMCON:101:1,2015-08-01T19:45:00Z,29.2533,-90.6633,1.09,6.21,1111122 
LUMCON,ioos:station:LUMCON:101:1,2015-08-01T20:00:00Z,29.2533,-90.6633,1.08,6.24,1111122 
LUMCON,ioos:station:LUMCON:101:1,2015-08-01T20:15:00Z,29.2533,-90.6633,1.06,6.11,1111122 
LUMCON,ioos:station:LUMCON:101:1,2015-08-01T20:30:00Z,29.2533,-90.6633,1.05,6.11,1111122 
LUMCON,ioos:station:LUMCON:101:1,2015-08-01T20:45:00Z,29.2533,-90.6633,1.04,5.99,1111122 
LUMCON,ioos:station:LUMCON:101:1,2015-08-01T21:00:00Z,29.2533,-90.6633,1.03,5.96,1111122 
LUMCON,ioos:station:LUMCON:101:1,2015-08-01T21:15:00Z,29.2533,-90.6633,1.02,6.07,1111122 
LUMCON,ioos:station:LUMCON:101:1,2015-08-01T21:30:00Z,29.2533,-90.6633,1.0,5.94,1111122 
LUMCON,ioos:station:LUMCON:101:1,2015-08-01T21:45:00Z,29.2533,-90.6633,0.99,5.89,1111122 
LUMCON,ioos:station:LUMCON:101:1,2015-08-01T22:00:00Z,29.2533,-90.6633,0.98,5.8,1111122 
LUMCON,ioos:station:LUMCON:101:1,2015-08-01T22:15:00Z,29.2533,-90.6633,0.96,5.84,1111122 
LUMCON,ioos:station:LUMCON:101:1,2015-08-01T22:30:00Z,29.2533,-90.6633,0.95,5.69,1111122 
LUMCON,ioos:station:LUMCON:101:1,2015-08-01T22:45:00Z,29.2533,-90.6633,0.94,5.64,1111122 
LUMCON,ioos:station:LUMCON:101:1,2015-08-01T23:00:00Z,29.2533,-90.6633,0.92,5.51,1111122 
LUMCON,ioos:station:LUMCON:101:1,2015-08-01T23:15:00Z,29.2533,-90.6633,0.91,5.34,1111122 
LUMCON,ioos:station:LUMCON:101:1,2015-08-01T23:30:00Z,29.2533,-90.6633,0.9,5.27,1111122 
LUMCON,ioos:station:LUMCON:101:1,2015-08-01T23:45:00Z,29.2533,-90.6633,0.89,5.19,1111122 
LUMCON,ioos:station:LUMCON:101:1,2015-08-02T05:00:00Z,29.2533,-90.6633,0.72,4.15,1111122 
LUMCON,ioos:station:LUMCON:101:1,2015-08-02T05:15:00Z,29.2533,-90.6633,0.74,4.13,1111122 
LUMCON,ioos:station:LUMCON:101:1,2015-08-02T05:30:00Z,29.2533,-90.6633,0.75,4.12,1111122 
LUMCON,ioos:station:LUMCON:101:1,2015-08-02T05:45:00Z,29.2533,-90.6633,0.75,4.1,1111122 
LUMCON,ioos:station:LUMCON:101:1,2015-08-02T06:00:00Z,29.2533,-90.6633,0.76,4.13,1111122 
LUMCON,ioos:station:LUMCON:101:1,2015-08-02T06:15:00Z,29.2533,-90.6633,0.76,4.11,1111122 
LUMCON,ioos:station:LUMCON:101:1,2015-08-02T06:30:00Z,29.2533,-90.6633,0.77,4.41,1111122 
LUMCON,ioos:station:LUMCON:101:1,2015-08-02T06:45:00Z,29.2533,-90.6633,0.78,4.48,1111122 
LUMCON,ioos:station:LUMCON:101:1,2015-08-02T07:00:00Z,29.2533,-90.6633,0.79,4.62,1111122 
LUMCON,ioos:station:LUMCON:101:1,2015-08-02T07:15:00Z,29.2533,-90.6633,0.8,4.67,1111122 
LUMCON,ioos:station:LUMCON:101:1,2015-08-02T07:30:00Z,29.2533,-90.6633,0.81,4.89,1111122 
LUMCON,ioos:station:LUMCON:101:1,2015-08-02T07:45:00Z,29.2533,-90.6633,0.82,4.9,1111122 
LUMCON,ioos:station:LUMCON:101:1,2015-08-02T08:00:00Z,29.2533,-90.6633,0.83,5.07,1111122 
LUMCON,ioos:station:LUMCON:101:1,2015-08-02T08:15:00Z,29.2533,-90.6633,0.84,5.25,1111122 
LUMCON,ioos:station:LUMCON:101:1,2015-08-02T08:30:00Z,29.2533,-90.6633,0.85,5.49,1111122 
LUMCON,ioos:station:LUMCON:101:1,2015-08-02T08:45:00Z,29.2533,-90.6633,0.87,5.6,1111122 
LUMCON,ioos:station:LUMCON:101:1,2015-08-02T09:00:00Z,29.2533,-90.6633,0.87,5.67,1111122 
LUMCON,ioos:station:LUMCON:101:1,2015-08-02T09:15:00Z,29.2533,-90.6633,0.88,5.8,1111122 
LUMCON,ioos:station:LUMCON:101:1,2015-08-02T09:30:00Z,29.2533,-90.6633,0.89,5.78,1111122 
LUMCON,ioos:station:LUMCON:101:1,2015-08-02T09:45:00Z,29.2533,-90.6633,0.9,5.86,1111122 
LUMCON,ioos:station:LUMCON:101:1,2015-08-02T10:00:00Z,29.2533,-90.6633,0.91,5.9,1111122 
LUMCON,ioos:station:LUMCON:101:1,2015-08-02T10:15:00Z,29.2533,-90.6633,0.92,5.98,1111122 
LUMCON,ioos:station:LUMCON:101:1,2015-08-02T10:30:00Z,29.2533,-90.6633,0.93,6.01,1111122 
LUMCON,ioos:station:LUMCON:101:1,2015-08-02T10:45:00Z,29.2533,-90.6633,0.93,6.05,1111122 
LUMCON,ioos:station:LUMCON:101:1,2015-08-02T11:00:00Z,29.2533,-90.6633,0.94,6.02,1111122 
LUMCON,ioos:station:LUMCON:101:1,2015-08-02T11:15:00Z,29.2533,-90.6633,0.95,6.06,1111122 
LUMCON,ioos:station:LUMCON:101:1,2015-08-02T11:30:00Z,29.2533,-90.6633,0.95,6.01,1111122 
LUMCON,ioos:station:LUMCON:101:1,2015-08-02T11:45:00Z,29.2533,-90.6633,0.96,6.05,1111122 
LUMCON,ioos:station:LUMCON:101:1,2015-08-02T12:00:00Z,29.2533,-90.6633,0.96,6.06,1111122 
LUMCON,ioos:station:LUMCON:101:1,2015-08-02T12:15:00Z,29.2533,-90.6633,0.96,6.0,1111122 
LUMCON,ioos:station:LUMCON:101:1,2015-08-02T12:30:00Z,29.2533,-90.6633,0.96,6.01,1111122 
LUMCON,ioos:station:LUMCON:101:1,2015-08-02T12:45:00Z,29.2533,-90.6633,0.97,6.05,1111122 
LUMCON,ioos:station:LUMCON:101:1,2015-08-02T13:00:00Z,29.2533,-90.6633,0.98,6.05,1111122 
LUMCON,ioos:station:LUMCON:101:1,2015-08-02T13:15:00Z,29.2533,-90.6633,0.98,6.05,1111122 
LUMCON,ioos:station:LUMCON:101:1,2015-08-02T13:30:00Z,29.2533,-90.6633,0.98,6.07,1111122 
LUMCON,ioos:station:LUMCON:101:1,2015-08-02T13:45:00Z,29.2533,-90.6633,0.98,6.11,1111122 
LUMCON,ioos:station:LUMCON:101:1,2015-08-02T14:00:00Z,29.2533,-90.6633,0.99,6.1,1111122 
LUMCON,ioos:station:LUMCON:101:1,2015-08-02T14:15:00Z,29.2533,-90.6633,0.99,6.18,1111122 
LUMCON,ioos:station:LUMCON:101:1,2015-08-02T14:30:00Z,29.2533,-90.6633,1.0,6.15,1111122 
LUMCON,ioos:station:LUMCON:101:1,2015-08-02T14:45:00Z,29.2533,-90.6633,1.0,6.11,1111122 
LUMCON,ioos:station:LUMCON:101:1,2015-08-02T15:00:00Z,29.2533,-90.6633,1.01,6.16,1111122 
LUMCON,ioos:station:LUMCON:101:1,2015-08-02T15:15:00Z,29.2533,-90.6633,1.02,6.17,1111122 
LUMCON,ioos:station:LUMCON:101:1,2015-08-02T15:30:00Z,29.2533,-90.6633,1.02,6.1,1111122 
LUMCON,ioos:station:LUMCON:101:1,2015-08-02T15:45:00Z,29.2533,-90.6633,1.03,6.16,1111122 
LUMCON,ioos:station:LUMCON:101:1,2015-08-02T16:00:00Z,29.2533,-90.6633,1.03,6.2,1111122 
LUMCON,ioos:station:LUMCON:101:1,2015-08-02T16:15:00Z,29.2533,-90.6633,1.03,6.31,1111122 
LUMCON,ioos:station:LUMCON:101:1,2015-08-02T16:30:00Z,29.2533,-90.6633,1.03,6.42,1111122 
LUMCON,ioos:station:LUMCON:101:1,2015-08-02T16:45:00Z,29.2533,-90.6633,1.03,6.62,1111122 
LUMCON,ioos:station:LUMCON:101:1,2015-08-02T17:00:00Z,29.2533,-90.6633,1.04,6.74,1111122 
LUMCON,ioos:station:LUMCON:101:1,2015-08-02T17:15:00Z,29.2533,-90.6633,1.04,6.7,1111122 
LUMCON,ioos:station:LUMCON:101:1,2015-08-02T17:30:00Z,29.2533,-90.6633,1.05,6.79,1111122 
LUMCON,ioos:station:LUMCON:101:1,2015-08-02T17:45:00Z,29.2533,-90.6633,1.05,6.8,1111122 
LUMCON,ioos:station:LUMCON:101:1,2015-08-02T18:00:00Z,29.2533,-90.6633,1.05,6.87,1111122 
LUMCON,ioos:station:LUMCON:101:1,2015-08-02T18:15:00Z,29.2533,-90.6633,1.05,6.95,1111122 
LUMCON,ioos:station:LUMCON:101:1,2015-08-02T18:30:00Z,29.2533,-90.6633,1.06,7.0,1111122 
LUMCON,ioos:station:LUMCON:101:1,2015-08-02T18:45:00Z,29.2533,-90.6633,1.06,6.93,1111122 
LUMCON,ioos:station:LUMCON:101:1,2015-08-02T19:00:00Z,29.2533,-90.6633,1.06,7.02,1111122 
LUMCON,ioos:station:LUMCON:101:1,2015-08-02T19:15:00Z,29.2533,-90.6633,1.07,7.06,1111122 
LUMCON,ioos:station:LUMCON:101:1,2015-08-02T19:30:00Z,29.2533,-90.6633,1.07,7.19,1111122 
LUMCON,ioos:station:LUMCON:101:1,2015-08-02T19:45:00Z,29.2533,-90.6633,1.07,7.27,1111122 
LUMCON,ioos:station:LUMCON:101:1,2015-08-02T20:00:00Z,29.2533,-90.6633,1.07,7.3,1111122 
LUMCON,ioos:station:LUMCON:101:1,2015-08-02T20:15:00Z,29.2533,-90.6633,1.08,7.4,1111122 
LUMCON,ioos:station:LUMCON:101:1,2015-08-02T20:30:00Z,29.2533,-90.6633,1.08,7.54,1111122 
LUMCON,ioos:station:LUMCON:101:1,2015-08-02T20:45:00Z,29.2533,-90.6633,1.08,7.58,1111122 
LUMCON,ioos:station:LUMCON:101:1,2015-08-02T21:00:00Z,29.2533,-90.6633,1.08,7.61,1111122 
LUMCON,ioos:station:LUMCON:101:1,2015-08-02T21:15:00Z,29.2533,-90.6633,1.06,7.68,1111122 
LUMCON,ioos:station:LUMCON:101:1,2015-08-02T21:30:00Z,29.2533,-90.6633,1.06,7.62,1111122 
LUMCON,ioos:station:LUMCON:101:1,2015-08-02T21:45:00Z,29.2533,-90.6633,1.05,7.44,1111122 
LUMCON,ioos:station:LUMCON:101:1,2015-08-02T22:00:00Z,29.2533,-90.6633,1.04,7.39,1111122 
LUMCON,ioos:station:LUMCON:101:1,2015-08-02T22:15:00Z,29.2533,-90.6633,1.03,7.35,1111122 
LUMCON,ioos:station:LUMCON:101:1,2015-08-02T22:30:00Z,29.2533,-90.6633,1.02,7.25,1111122 
LUMCON,ioos:station:LUMCON:101:1,2015-08-02T22:45:00Z,29.2533,-90.6633,1.01,7.13,1111122 
LUMCON,ioos:station:LUMCON:101:1,2015-08-02T23:00:00Z,29.2533,-90.6633,1.01,6.96,1111122 
LUMCON,ioos:station:LUMCON:101:1,2015-08-02T23:15:00Z,29.2533,-90.6633,1.01,6.95,1111122 
LUMCON,ioos:station:LUMCON:101:1,2015-08-02T23:30:00Z,29.2533,-90.6633,1.02,6.92,1111122 
LUMCON,ioos:station:LUMCON:101:1,2015-08-02T23:45:00Z,29.2533,-90.6633,1.02,6.92,1111122 
LUMCON,ioos:station:LUMCON:101:1,2015-08-03T05:00:00Z,29.2533,-90.6633,0.83,5.36,1111122 
LUMCON,ioos:station:LUMCON:101:1,2015-08-03T05:15:00Z,29.2533,-90.6633,0.82,5.28,1111122 
LUMCON,ioos:station:LUMCON:101:1,2015-08-03T05:30:00Z,29.2533,-90.6633,0.82,5.24,1111122 
LUMCON,ioos:station:LUMCON:101:1,2015-08-03T05:45:00Z,29.2533,-90.6633,0.82,5.19,1111122 
LUMCON,ioos:station:LUMCON:101:1,2015-08-03T06:00:00Z,29.2533,-90.6633,0.82,5.15,1111122 
LUMCON,ioos:station:LUMCON:101:1,2015-08-03T06:15:00Z,29.2533,-90.6633,0.83,5.12,1111122 
LUMCON,ioos:station:LUMCON:101:1,2015-08-03T06:30:00Z,29.2533,-90.6633,0.83,5.1,1111122 
LUMCON,ioos:station:LUMCON:101:1,2015-08-03T06:45:00Z,29.2533,-90.6633,0.84,5.05,1111122 
LUMCON,ioos:station:LUMCON:101:1,2015-08-03T07:00:00Z,29.2533,-90.6633,0.84,5.06,1111122 
LUMCON,ioos:station:LUMCON:101:1,2015-08-03T07:15:00Z,29.2533,-90.6633,0.84,5.0,1111122 
LUMCON,ioos:station:LUMCON:101:1,2015-08-03T07:30:00Z,29.2533,-90.6633,0.84,5.07,1111122 
LUMCON,ioos:station:LUMCON:101:1,2015-08-03T07:45:00Z,29.2533,-90.6633,0.84,5.27,1111122 
LUMCON,ioos:station:LUMCON:101:1,2015-08-03T08:00:00Z,29.2533,-90.6633,0.85,5.68,1111122 
LUMCON,ioos:station:LUMCON:101:1,2015-08-03T08:15:00Z,29.2533,-90.6633,0.87,5.79,1111122 
LUMCON,ioos:station:LUMCON:101:1,2015-08-03T08:30:00Z,29.2533,-90.6633,0.88,5.86,1111122 
LUMCON,ioos:station:LUMCON:101:1,2015-08-03T08:45:00Z,29.2533,-90.6633,0.88,5.9,1111122 
LUMCON,ioos:station:LUMCON:101:1,2015-08-03T09:00:00Z,29.2533,-90.6633,0.88,5.89,1111122 
LUMCON,ioos:station:LUMCON:101:1,2015-08-03T09:15:00Z,29.2533,-90.6633,0.89,5.85,1111122 
LUMCON,ioos:station:LUMCON:101:1,2015-08-03T09:30:00Z,29.2533,-90.6633,0.89,5.9,1111122 
LUMCON,ioos:station:LUMCON:101:1,2015-08-03T09:45:00Z,29.2533,-90.6633,0.9,6.06,1111122 
LUMCON,ioos:station:LUMCON:101:1,2015-08-03T10:00:00Z,29.2533,-90.6633,0.9,6.04,1111122 
LUMCON,ioos:station:LUMCON:101:1,2015-08-03T10:15:00Z,29.2533,-90.6633,0.9,6.02,1111122 
LUMCON,ioos:station:LUMCON:101:1,2015-08-03T10:30:00Z,29.2533,-90.6633,0.9,6.07,1111122 
LUMCON,ioos:station:LUMCON:101:1,2015-08-03T10:45:00Z,29.2533,-90.6633,0.89,6.08,1111122 
LUMCON,ioos:station:LUMCON:101:1,2015-08-03T11:00:00Z,29.2533,-90.6633,0.9,6.08,1111122 
LUMCON,ioos:station:LUMCON:101:1,2015-08-03T11:15:00Z,29.2533,-90.6633,0.91,6.07,1111122 
LUMCON,ioos:station:LUMCON:101:1,2015-08-03T11:30:00Z,29.2533,-90.6633,0.91,6.02,1111122 
LUMCON,ioos:station:LUMCON:101:1,2015-08-03T11:45:00Z,29.2533,-90.6633,0.91,5.98,1111122 
LUMCON,ioos:station:LUMCON:101:1,2015-08-03T12:00:00Z,29.2533,-90.6633,0.91,5.97,1111122 
LUMCON,ioos:station:LUMCON:101:1,2015-08-03T12:15:00Z,29.2533,-90.6633,0.91,6.0,1111122 
LUMCON,ioos:station:LUMCON:101:1,2015-08-03T12:30:00Z,29.2533,-90.6633,0.92,5.96,1111122 
LUMCON,ioos:station:LUMCON:101:1,2015-08-03T12:45:00Z,29.2533,-90.6633,0.91,5.96,1111122 
LUMCON,ioos:station:LUMCON:101:1,2015-08-03T13:00:00Z,29.2533,-90.6633,0.92,5.95,1111122 
LUMCON,ioos:station:LUMCON:101:1,2015-08-03T13:15:00Z,29.2533,-90.6633,0.92,5.9,1111122 
LUMCON,ioos:station:LUMCON:101:1,2015-08-03T13:30:00Z,29.2533,-90.6633,0.92,5.95,1111122 
LUMCON,ioos:station:LUMCON:101:1,2015-08-03T13:45:00Z,29.2533,-90.6633,0.92,5.91,1111122 
LUMCON,ioos:station:LUMCON:101:1,2015-08-03T14:00:00Z,29.2533,-90.6633,0.92,5.95,1111122 
LUMCON,ioos:station:LUMCON:101:1,2015-08-03T14:15:00Z,29.2533,-90.6633,0.93,5.95,1111122 
LUMCON,ioos:station:LUMCON:101:1,2015-08-03T14:30:00Z,29.2533,-90.6633,0.94,5.96,1111122 
LUMCON,ioos:station:LUMCON:101:1,2015-08-03T14:45:00Z,29.2533,-90.6633,0.94,5.95,1111122 
LUMCON,ioos:station:LUMCON:101:1,2015-08-03T15:00:00Z,29.2533,-90.6633,0.94,5.98,1111122 
LUMCON,ioos:station:LUMCON:101:1,2015-08-03T15:15:00Z,29.2533,-90.6633,0.94,5.95,1111122 
LUMCON,ioos:station:LUMCON:101:1,2015-08-03T15:30:00Z,29.2533,-90.6633,0.94,5.9,1111122 
LUMCON,ioos:station:LUMCON:101:1,2015-08-03T15:45:00Z,29.2533,-90.6633,0.96,5.87,1111122 
LUMCON,ioos:station:LUMCON:101:1,2015-08-03T16:00:00Z,29.2533,-90.6633,1.01,5.36,1111122 
LUMCON,ioos:station:LUMCON:101:1,2015-08-03T16:15:00Z,29.2533,-90.6633,1.0,5.26,1111122 
LUMCON,ioos:station:LUMCON:101:1,2015-08-03T16:30:00Z,29.2533,-90.6633,0.98,5.21,1111122 
LUMCON,ioos:station:LUMCON:101:1,2015-08-03T16:45:00Z,29.2533,-90.6633,0.95,5.26,1111122 
LUMCON,ioos:station:LUMCON:101:1,2015-08-03T17:00:00Z,29.2533,-90.6633,0.93,5.27,1111122 
LUMCON,ioos:station:LUMCON:101:1,2015-08-03T17:15:00Z,29.2533,-90.6633,0.93,5.28,1111122 
LUMCON,ioos:station:LUMCON:101:1,2015-08-03T17:30:00Z,29.2533,-90.6633,0.93,5.41,1111122 
LUMCON,ioos:station:LUMCON:101:1,2015-08-03T17:45:00Z,29.2533,-90.6633,0.95,5.46,1111122 
LUMCON,ioos:station:LUMCON:101:1,2015-08-03T18:00:00Z,29.2533,-90.6633,0.97,5.49,1111122 
LUMCON,ioos:station:LUMCON:101:1,2015-08-03T18:15:00Z,29.2533,-90.6633,0.97,5.42,1111122 
LUMCON,ioos:station:LUMCON:101:1,2015-08-03T18:30:00Z,29.2533,-90.6633,0.97,5.35,1111122 
LUMCON,ioos:station:LUMCON:101:1,2015-08-03T18:45:00Z,29.2533,-90.6633,0.98,5.3,1111122 
LUMCON,ioos:station:LUMCON:101:1,2015-08-03T19:00:00Z,29.2533,-90.6633,0.99,5.14,1111122 
LUMCON,ioos:station:LUMCON:101:1,2015-08-03T19:15:00Z,29.2533,-90.6633,1.01,5.08,1111122 
LUMCON,ioos:station:LUMCON:101:1,2015-08-03T19:30:00Z,29.2533,-90.6633,1.02,5.01,1111122 
LUMCON,ioos:station:LUMCON:101:1,2015-08-03T19:45:00Z,29.2533,-90.6633,1.01,4.94,1111122 
LUMCON,ioos:station:LUMCON:101:1,2015-08-03T20:00:00Z,29.2533,-90.6633,0.99,4.93,1111122 
LUMCON,ioos:station:LUMCON:101:1,2015-08-03T20:15:00Z,29.2533,-90.6633,0.97,4.93,1111122 
LUMCON,ioos:station:LUMCON:101:1,2015-08-03T20:30:00Z,29.2533,-90.6633,0.98,4.92,1111122 
LUMCON,ioos:station:LUMCON:101:1,2015-08-03T20:45:00Z,29.2533,-90.6633,1.0,4.93,1111122 
LUMCON,ioos:station:LUMCON:101:1,2015-08-03T21:00:00Z,29.2533,-90.6633,1.0,4.88,1111122 
LUMCON,ioos:station:LUMCON:101:1,2015-08-03T21:15:00Z,29.2533,-90.6633,1.01,4.88,1111122 
LUMCON,ioos:station:LUMCON:101:1,2015-08-03T21:30:00Z,29.2533,-90.6633,1.01,4.88,1111122 
LUMCON,ioos:station:LUMCON:101:1,2015-08-03T21:45:00Z,29.2533,-90.6633,1.02,4.87,1111122 
LUMCON,ioos:station:LUMCON:101:1,2015-08-03T22:00:00Z,29.2533,-90.6633,1.02,5.09,1111122 
LUMCON,ioos:station:LUMCON:101:1,2015-08-03T22:15:00Z,29.2533,-90.6633,1.02,5.17,1111122 
LUMCON,ioos:station:LUMCON:101:1,2015-08-03T22:30:00Z,29.2533,-90.6633,1.01,5.2,1111122 
LUMCON,ioos:station:LUMCON:101:1,2015-08-03T22:45:00Z,29.2533,-90.6633,1.0,5.2,1111122 
LUMCON,ioos:station:LUMCON:101:1,2015-08-03T23:00:00Z,29.2533,-90.6633,1.0,5.08,1111122 
LUMCON,ioos:station:LUMCON:101:1,2015-08-03T23:15:00Z,29.2533,-90.6633,1.0,5.06,1111122 
LUMCON,ioos:station:LUMCON:101:1,2015-08-03T23:30:00Z,29.2533,-90.6633,0.99,5.19,1111122 
LUMCON,ioos:station:LUMCON:101:1,2015-08-03T23:45:00Z,29.2533,-90.6633,0.98,5.03,1111122 
LUMCON,ioos:station:LUMCON:101:1,2015-08-04T05:00:00Z,29.2533,-90.6633,0.85,4.78,1111122 
LUMCON,ioos:station:LUMCON:101:1,2015-08-04T05:15:00Z,29.2533,-90.6633,0.85,4.72,1111122 
LUMCON,ioos:station:LUMCON:101:1,2015-08-04T05:30:00Z,29.2533,-90.6633,0.85,4.75,1111122 
LUMCON,ioos:station:LUMCON:101:1,2015-08-04T05:45:00Z,29.2533,-90.6633,0.86,4.62,1111122 
LUMCON,ioos:station:LUMCON:101:1,2015-08-04T06:00:00Z,29.2533,-90.6633,0.86,4.66,1111122 
LUMCON,ioos:station:LUMCON:101:1,2015-08-04T06:15:00Z,29.2533,-90.6633,0.87,4.71,1111122 
LUMCON,ioos:station:LUMCON:101:1,2015-08-04T06:30:00Z,29.2533,-90.6633,0.87,4.63,1111122 
LUMCON,ioos:station:LUMCON:101:1,2015-08-04T06:45:00Z,29.2533,-90.6633,0.87,4.63,1111122 
LUMCON,ioos:station:LUMCON:101:1,2015-08-04T07:00:00Z,29.2533,-90.6633,0.88,4.76,1111122 
LUMCON,ioos:station:LUMCON:101:1,2015-08-04T07:15:00Z,29.2533,-90.6633,0.89,4.83,1111122 
LUMCON,ioos:station:LUMCON:101:1,2015-08-04T07:30:00Z,29.2533,-90.6633,0.89,4.79,1111122 
LUMCON,ioos:station:LUMCON:101:1,2015-08-04T07:45:00Z,29.2533,-90.6633,0.9,4.69,1111122 
LUMCON,ioos:station:LUMCON:101:1,2015-08-04T08:00:00Z,29.2533,-90.6633,0.9,4.64,1111122 
LUMCON,ioos:station:LUMCON:101:1,2015-08-04T08:15:00Z,29.2533,-90.6633,0.91,4.57,1111122 
LUMCON,ioos:station:LUMCON:101:1,2015-08-04T08:30:00Z,29.2533,-90.6633,0.91,4.53,1111122 
LUMCON,ioos:station:LUMCON:101:1,2015-08-04T08:45:00Z,29.2533,-90.6633,0.9,4.51,1111122 
LUMCON,ioos:station:LUMCON:101:1,2015-08-04T09:00:00Z,29.2533,-90.6633,0.9,4.49,1111122 
LUMCON,ioos:station:LUMCON:101:1,2015-08-04T09:15:00Z,29.2533,-90.6633,0.91,4.57,1111122 
LUMCON,ioos:station:LUMCON:101:1,2015-08-04T09:30:00Z,29.2533,-90.6633,0.92,4.5,1111122 
LUMCON,ioos:station:LUMCON:101:1,2015-08-04T09:45:00Z,29.2533,-90.6633,0.93,4.49,1111122 
LUMCON,ioos:station:LUMCON:101:1,2015-08-04T10:00:00Z,29.2533,-90.6633,0.93,4.56,1111122 
LUMCON,ioos:station:LUMCON:101:1,2015-08-04T10:15:00Z,29.2533,-90.6633,0.94,4.43,1111122 
LUMCON,ioos:station:LUMCON:101:1,2015-08-04T10:30:00Z,29.2533,-90.6633,0.94,4.46,1111122 
LUMCON,ioos:station:LUMCON:101:1,2015-08-04T10:45:00Z,29.2533,-90.6633,0.93,4.51,1111122 
LUMCON,ioos:station:LUMCON:101:1,2015-08-04T11:00:00Z,29.2533,-90.6633,0.93,4.52,1111122 
LUMCON,ioos:station:LUMCON:101:1,2015-08-04T11:15:00Z,29.2533,-90.6633,0.93,4.6,1111122 
LUMCON,ioos:station:LUMCON:101:1,2015-08-04T11:30:00Z,29.2533,-90.6633,0.95,4.54,1111122 
LUMCON,ioos:station:LUMCON:101:1,2015-08-04T11:45:00Z,29.2533,-90.6633,0.96,4.53,1111122 
LUMCON,ioos:station:LUMCON:101:1,2015-08-04T12:00:00Z,29.2533,-90.6633,0.97,4.47,1111122 
LUMCON,ioos:station:LUMCON:101:1,2015-08-04T12:15:00Z,29.2533,-90.6633,0.97,4.44,1111122 
LUMCON,ioos:station:LUMCON:101:1,2015-08-04T12:30:00Z,29.2533,-90.6633,0.96,4.58,1111122 
LUMCON,ioos:station:LUMCON:101:1,2015-08-04T12:45:00Z,29.2533,-90.6633,0.94,4.65,1111122 
LUMCON,ioos:station:LUMCON:101:1,2015-08-04T13:00:00Z,29.2533,-90.6633,0.95,4.42,1111122 
LUMCON,ioos:station:LUMCON:101:1,2015-08-04T13:15:00Z,29.2533,-90.6633,0.99,4.17,1111122 
LUMCON,ioos:station:LUMCON:101:1,2015-08-04T13:30:00Z,29.2533,-90.6633,1.01,4.12,1111122 
LUMCON,ioos:station:LUMCON:101:1,2015-08-04T13:45:00Z,29.2533,-90.6633,1.0,4.02,1111122 
LUMCON,ioos:station:LUMCON:101:1,2015-08-04T14:00:00Z,29.2533,-90.6633,0.98,4.0,1111122 
LUMCON,ioos:station:LUMCON:101:1,2015-08-04T14:15:00Z,29.2533,-90.6633,0.96,4.0,1111122 